Weather History for Covington, KY

Change the Weather History Date:

Monday, May 19, 2014

  Actual Average Record
Temperature  
Mean Temperature 56 °F 64 °F  
Max Temperature 71 °F 75 °F 92 °F (1964)
Min Temperature 41 °F 54 °F 30 °F (2002)
Degree Days  
Heating Degree Days 9 4  
Month to date heating degree days 108 96  
Since 1 July heating degree days 5405 4930  
Cooling Degree Days 0 3  
Month to date cooling degree days 45 33  
Year to date cooling degree days 52 51  
Growing Degree Days 6 (Base 50)    
Moisture  
Dew Point 40 °F    
Average Humidity 56    
Maximum Humidity 80    
Minimum Humidity 32    
Precipitation  
Precipitation 0.00 in 0.16 in 1.14 in (2008)
Month to date precipitation 2.43 3.02  
Year to date precipitation 17.04 16.68  
Snow  
Snow 0.00 in 0.00 in 0.00 in ()
Month to date snowfall 0.0 0.0  
Since 1 July snowfall 47.5 22.1  
Snow Depth 0.00 in    
Sea Level Pressure  
Sea Level Pressure 30.22 in    
Wind  
Wind Speed 6 mph (SE)    
Max Wind Speed 14 mph    
Max Gust Speed 18 mph    
Visibility 10 miles    
Events      
T = Trace of Precipitation, MM = Missing Value Source: NWS Daily Summary

Daily Weather History Graph

Daily Weather History Graph

Search for Another Location

Airport:

Trip Planner

Search our weather history database for the weather conditions in past years. The results will help you decide how hot, cold, wet, or windy it might be!

Date:

Astronomy

May. 19, 2014 Rise Set
Actual Time 6:22 AM EDT 8:48 PM EDT
Civil Twilight 5:52 AM EDT 9:18 PM EDT
Nautical Twilight 5:14 AM EDT 9:56 PM EDT
Astronomical Twilight 4:32 AM EDT 10:38 PM EDT
Moon 12:35 AM EDT (5/19) 11:18 AM EDT (5/19)
Length of Visible Light 15h 26m
Length of Day
14h 25m
Waning Gibbous, 71% of the Moon is Illuminated
May 19
Waning Gibbous
May 21
Last Quarter
May 28
New
Jun 5
First Quarter
Jun 13
Full

Hourly Weather History & Observations

Time (EDT) Temp. Dew Point Humidity Pressure Visibility Wind Dir Wind Speed Gust Speed Precip Events Conditions
12:52 AM 52.0 °F 36.0 °F 54% 30.25 in 10.0 mi Calm Calm - N/A   Clear
1:52 AM 52.0 °F 36.0 °F 54% 30.25 in 10.0 mi East 3.5 mph - N/A   Clear
2:52 AM 50.0 °F 36.0 °F 59% 30.25 in 10.0 mi Calm Calm - N/A   Clear
3:52 AM 50.0 °F 36.0 °F 59% 30.25 in 10.0 mi Calm Calm - N/A   Clear
4:52 AM 46.0 °F 36.0 °F 68% 30.27 in 10.0 mi Calm Calm - N/A   Mostly Cloudy
5:52 AM 46.0 °F 37.0 °F 71% 30.27 in 10.0 mi Calm Calm - N/A   Mostly Cloudy
6:52 AM 46.0 °F 39.9 °F 79% 30.28 in 10.0 mi Calm Calm - N/A   Mostly Cloudy
7:52 AM 48.9 °F 43.0 °F 80% 30.30 in 10.0 mi East 3.5 mph - N/A   Mostly Cloudy
10:52 AM 62.1 °F 36.0 °F 38% 30.30 in 10.0 mi SE 12.7 mph - N/A   Mostly Cloudy
11:52 AM 64.0 °F 37.9 °F 38% 30.29 in 10.0 mi SE 8.1 mph - N/A   Mostly Cloudy
12:52 PM 66.0 °F 39.0 °F 37% 30.27 in 10.0 mi SE 6.9 mph - N/A   Scattered Clouds
1:52 PM 68.0 °F 41.0 °F 37% 30.25 in 10.0 mi ESE 8.1 mph - N/A   Scattered Clouds
2:52 PM 68.0 °F 37.9 °F 33% 30.22 in 10.0 mi Calm Calm - N/A   Mostly Cloudy
3:52 PM 70.0 °F 41.0 °F 35% 30.20 in 10.0 mi ESE 8.1 mph - N/A   Mostly Cloudy
4:52 PM 70.0 °F 42.1 °F 36% 30.18 in 10.0 mi South 6.9 mph 17.3 mph N/A   Mostly Cloudy
5:52 PM 70.0 °F 42.1 °F 36% 30.17 in 10.0 mi South 5.8 mph - N/A   Mostly Cloudy
6:52 PM 69.1 °F 41.0 °F 36% 30.16 in 10.0 mi South 9.2 mph - N/A   Mostly Cloudy
7:52 PM 66.0 °F 41.0 °F 40% 30.13 in 10.0 mi SE 12.7 mph - N/A   Overcast
8:52 PM 64.0 °F 41.0 °F 43% 30.12 in 10.0 mi SE 9.2 mph - N/A   Mostly Cloudy
9:52 PM 62.1 °F 42.1 °F 48% 30.12 in 10.0 mi SE 8.1 mph - N/A   Scattered Clouds
10:52 PM 59.0 °F 43.0 °F 55% 30.12 in 10.0 mi SE 8.1 mph - N/A   Scattered Clouds
11:52 PM 61.0 °F 43.0 °F 52% 30.12 in 10.0 mi SE 9.2 mph - N/A   Mostly Cloudy